Weather History for Ellensburg, WA

Change the Weather History Date:

Tuesday, January 3, 2012

  Actual Average (KYKM) Record (KYKM)
Temperature  
Mean Temperature 31 °F 28 °F  
Max Temperature 39 °F 35 °F 57 °F (1989)
Min Temperature 23 °F 22 °F -5 °F (1959)
Degree Days  
Heating Degree Days 34 37  
Month to date heating degree days 111  
Since 1 July heating degree days 2774  
Cooling Degree Days 0 0  
Month to date cooling degree days 0  
Year to date cooling degree days 0  
Moisture  
Dew Point 27 °F    
Average Humidity 77    
Maximum Humidity 85    
Minimum Humidity 68    
Precipitation  
Precipitation 0.01 in 0.04 in 0.60 in (1966)
Month to date precipitation 0.13  
Year to date precipitation 0.13  
Snow  
Snow 0.00 in 0.20 in 10.60 in (1966)
Month to date snowfall 0.7  
Year to date snowfall 0.7  
Since 1 July snowfall 13.7  
Snow Depth -    
Sea Level Pressure  
Sea Level Pressure 30.34 in    
Wind  
Wind Speed 3 mph (NE)    
Max Wind Speed 8 mph    
Max Gust Speed -    
Visibility 10 miles    
Events      
T = Trace of Precipitation, MM = Missing Value Source: NWS Daily Summary

Daily Weather History Graph

Daily Weather History Graph

Search for Another Location

Airport:

Trip Planner

Search our weather history database for the weather conditions in past years. The results will help you decide how hot, cold, wet, or windy it might be!

Date:

Astronomy

Jan. 03, 2012 Rise Set
Actual Time 7:48 AM PST 4:25 PM PST
Civil Twilight 7:12 AM PST 5:00 PM PST
Nautical Twilight 6:34 AM PST 5:39 PM PST
Astronomical Twilight 5:57 AM PST 6:15 PM PST
Moon 12:20 PM PST (1/3) 2:37 AM PST (1/3)
Length of Visible Light 9h 47m
Length of Day
8h 37m
Waxing Gibbous, 73% of the Moon is Illuminated
Jan 3
Waxing Gibbous
Jan 8
Full
Jan 16
Last Quarter
Jan 22
New
Jan 30
First Quarter

Hourly Weather History & Observations

Time (PST) Temp. Windchill Dew Point Humidity Pressure Visibility Wind Dir Wind Speed Gust Speed Precip Events Conditions
12:53 AM 26.1 °F 19.4 °F 21.0 °F 81% 30.28 in 10.0 mi NE 5.8 mph - N/A   Clear
1:53 AM 25.0 °F - 19.9 °F 81% 30.31 in 10.0 mi Calm Calm - N/A   Clear
2:53 AM 26.1 °F 21.9 °F 19.9 °F 78% 30.34 in 10.0 mi NW 3.5 mph - N/A   Clear
3:53 AM 23.0 °F - 18.0 °F 81% 30.35 in 10.0 mi Calm Calm - N/A   Scattered Clouds
4:53 AM 28.9 °F 23.9 °F 24.1 °F 82% 30.35 in 10.0 mi NNE 4.6 mph - N/A   Overcast
6:53 AM 25.0 °F 19.3 °F 19.9 °F 81% 30.37 in 10.0 mi East 4.6 mph - N/A   Clear
7:53 AM 25.0 °F 18.1 °F 19.9 °F 81% 30.39 in 10.0 mi NNE 5.8 mph - N/A   Clear
8:53 AM 27.0 °F - 21.0 °F 78% 30.42 in 10.0 mi Calm Calm - N/A   Clear
9:53 AM 32.0 °F 26.4 °F 26.1 °F 79% 30.42 in 10.0 mi WSW 5.8 mph - 0.01 in   Overcast
10:53 AM 35.1 °F - 28.0 °F 76% 30.40 in 10.0 mi Calm Calm - N/A   Clear
11:53 AM 36.0 °F 33.3 °F 28.0 °F 73% 30.38 in 10.0 mi SSW 3.5 mph - N/A   Partly Cloudy
12:06 PM 35.6 °F - 28.4 °F 75% 30.33 in 10.0 mi Calm Calm - N/A   Mostly Cloudy
12:53 PM 37.0 °F - 28.9 °F 73% 30.37 in 10.0 mi Calm Calm - N/A   Overcast
2:43 PM 39.2 °F 37.0 °F 30.2 °F 70% 30.29 in 10.0 mi NW 3.5 mph - N/A   Scattered Clouds
2:53 PM 39.9 °F - 30.0 °F 68% 30.33 in 10.0 mi Calm Calm - N/A   Scattered Clouds
3:09 PM 39.2 °F - 30.2 °F 70% 30.27 in 10.0 mi Calm Calm - N/A   Mostly Cloudy
3:18 PM 39.2 °F - 30.2 °F 70% 30.28 in 10.0 mi Calm Calm - N/A   Scattered Clouds
3:53 PM 39.0 °F - 30.0 °F 70% 30.31 in 10.0 mi Calm Calm - N/A   Mostly Cloudy
4:16 PM 37.4 °F 34.9 °F 30.2 °F 75% 30.30 in 10.0 mi SSE 3.5 mph - N/A   Mostly Cloudy
4:48 PM 35.6 °F 29.2 °F 28.4 °F 75% 30.28 in 10.0 mi ENE 8.1 mph - N/A   Scattered Clouds
4:53 PM 37.0 °F 31.6 °F 28.9 °F 73% 30.33 in 10.0 mi ENE 6.9 mph - N/A   Mostly Cloudy
5:01 PM 37.4 °F 34.9 °F 30.2 °F 75% 30.29 in 10.0 mi ENE 3.5 mph - N/A   Mostly Cloudy
5:53 PM 37.0 °F 34.5 °F 30.0 °F 76% 30.36 in 10.0 mi SW 3.5 mph - N/A   Overcast
6:53 PM 37.0 °F - 30.0 °F 76% 30.36 in 10.0 mi Calm Calm - N/A   Overcast
7:53 PM 37.0 °F 33.3 °F 30.9 °F 79% 30.37 in 10.0 mi NNW 4.6 mph - N/A   Overcast
8:53 PM 35.1 °F 31.0 °F 28.9 °F 78% 30.34 in 10.0 mi East 4.6 mph - N/A   Partly Cloudy
9:53 PM 34.0 °F 31.0 °F 28.9 °F 82% 30.35 in 10.0 mi NE 3.5 mph - N/A   Clear
10:53 PM 32.0 °F 26.4 °F 27.0 °F 82% 30.32 in 10.0 mi WNW 5.8 mph - N/A   Clear
11:53 PM 33.1 °F 30.0 °F 28.9 °F 85% 30.33 in 10.0 mi ENE 3.5 mph - N/A   Mostly Cloudy